Change the Weather History Date:

Thursday, May 1, 2014

  Actual Average Record
Temperature  
Mean Temperature 58 °F 60 °F  
Max Temperature 65 °F 72 °F 89 °F (1942)
Min Temperature 51 °F 47 °F 32 °F (1996)
Degree Days  
Heating Degree Days 7 6  
Month to date heating degree days 7 6  
Since 1 July heating degree days 4337 4260  
Cooling Degree Days 0 1  
Month to date cooling degree days 0 1  
Year to date cooling degree days 21 12  
Growing Degree Days 9 (Base 50)    
Moisture  
Dew Point 45 °F    
Average Humidity 64    
Maximum Humidity 93    
Minimum Humidity 34    
Precipitation  
Precipitation T in 0.12 in 1.04 in (1989)
Month to date precipitation T 0.12  
Year to date precipitation 9.80 13.71  
Snow  
Snow 0.00 in 0.00 in - ()
Month to date snowfall 0.0 0.0  
Since 1 July snowfall 13.0 13.3  
Snow Depth 0.00 in    
Sea Level Pressure  
Sea Level Pressure 29.91 in    
Wind  
Wind Speed 9 mph (WSW)    
Max Wind Speed 22 mph    
Max Gust Speed 29 mph    
Visibility 10 miles    
Events      
T = Trace of Precipitation, MM = Missing Value Source: NWS Daily Summary

Daily Weather History Graph

Daily Weather History Graph

Search for Another Location

Airport or City:

Trip Planner

Search our weather history database for the weather conditions in past years. The results will help you decide how hot, cold, wet, or windy it might be!

Date:

Astronomy

May. 01, 2014 Rise Set
Actual Time 6:36 AM EDT 8:17 PM EDT
Civil Twilight 6:08 AM EDT 8:45 PM EDT
Nautical Twilight 5:35 AM EDT 9:18 PM EDT
Astronomical Twilight 4:59 AM EDT 9:54 PM EDT
Moon 8:24 AM EDT (5/1) 10:48 PM EDT (5/1)
Length of Visible Light 14h 36m
Length of Day
13h 41m
Waxing Crescent, 6% of the Moon is Illuminated
May 1
Waxing Crescent
May 6
First Quarter
May 14
Full
May 21
Last Quarter
May 28
New

Hourly Weather History & Observations

Time (EDT) Temp. Dew Point Humidity Pressure Visibility Wind Dir Wind Speed Gust Speed Precip Events Conditions
12:00 AM 57.0 °F 53.1 °F 87% 29.95 in 10.0 mi Calm Calm - N/A   Overcast
12:53 AM 57.0 °F 52.0 °F 83% 29.88 in 10.0 mi SSW 3.5 mph - 0.00 in   Overcast
1:00 AM 57.0 °F 52.0 °F 83% 29.94 in 10.0 mi Calm Calm - N/A   Overcast
1:53 AM 57.0 °F 53.1 °F 87% 29.88 in 10.0 mi WSW 3.5 mph - N/A   Overcast
2:00 AM 57.0 °F 53.1 °F 87% 29.93 in 10.0 mi WSW 3.5 mph - N/A   Overcast
2:45 AM 55.9 °F 52.0 °F 87% 29.92 in 10.0 mi West 3.5 mph - N/A   Scattered Clouds
2:53 AM 55.9 °F 52.0 °F 87% 29.86 in 10.0 mi WNW 4.6 mph - N/A   Scattered Clouds
3:00 AM 55.9 °F 52.0 °F 87% 29.92 in 10.0 mi WNW 3.5 mph - N/A   Mostly Cloudy
3:53 AM 57.0 °F 52.0 °F 83% 29.85 in 10.0 mi Calm Calm - N/A   Overcast
4:53 AM 55.9 °F 53.1 °F 90% 29.85 in 10.0 mi South 4.6 mph - 0.00 in   Overcast
5:53 AM 55.0 °F 52.0 °F 89% 29.87 in 10.0 mi WSW 4.6 mph - N/A   Overcast
6:30 AM 54.0 °F 52.0 °F 93% 29.92 in 10.0 mi WSW 4.6 mph - N/A   Mostly Cloudy
6:53 AM 54.0 °F 51.1 °F 90% 29.87 in 10.0 mi SSW 4.6 mph - N/A   Mostly Cloudy
7:53 AM 55.9 °F 50.0 °F 80% 29.90 in 10.0 mi West 9.2 mph - N/A   Mostly Cloudy
8:30 AM 55.9 °F 48.9 °F 77% 29.95 in 10.0 mi West 10.4 mph - N/A   Mostly Cloudy
8:53 AM 55.9 °F 46.9 °F 72% 29.92 in 10.0 mi WSW 10.4 mph - N/A   Mostly Cloudy
9:24 AM 55.9 °F 45.0 °F 67% 29.97 in 10.0 mi West 10.4 mph - N/A   Mostly Cloudy
9:53 AM 55.9 °F 44.1 °F 64% 29.93 in 10.0 mi West 9.2 mph - N/A   Mostly Cloudy
10:02 AM 55.9 °F 45.0 °F 67% 29.97 in 10.0 mi West 9.2 mph - N/A   Overcast
10:19 AM 55.9 °F 45.0 °F 67% 29.98 in 10.0 mi West 9.2 mph - N/A   Mostly Cloudy
10:53 AM 57.0 °F 43.0 °F 59% 29.93 in 10.0 mi SW 15.0 mph - N/A   Mostly Cloudy
11:53 AM 57.0 °F 44.1 °F 62% 29.93 in 10.0 mi West 9.2 mph - N/A   Mostly Cloudy
12:42 PM 59.0 °F 44.1 °F 58% 29.96 in 10.0 mi West 10.4 mph - N/A   Mostly Cloudy
12:53 PM 60.1 °F 45.0 °F 57% 29.91 in 10.0 mi WNW 12.7 mph 18.4 mph N/A   Mostly Cloudy
1:53 PM 63.0 °F 41.0 °F 45% 29.90 in 10.0 mi WSW 19.6 mph 24.2 mph N/A   Scattered Clouds
2:53 PM 63.0 °F 39.0 °F 41% 29.89 in 10.0 mi SW 11.5 mph 21.9 mph N/A   Scattered Clouds
3:53 PM 64.9 °F 36.0 °F 34% 29.86 in 10.0 mi WSW 15.0 mph 29.9 mph N/A   Mostly Cloudy
4:53 PM 64.9 °F 35.1 °F 33% 29.85 in 10.0 mi WSW 13.8 mph - N/A   Mostly Cloudy
5:53 PM 64.0 °F 36.0 °F 35% 29.85 in 10.0 mi SW 16.1 mph 23.0 mph N/A   Scattered Clouds
6:53 PM 63.0 °F 37.0 °F 38% 29.86 in 10.0 mi West 8.1 mph - N/A   Scattered Clouds
7:53 PM 60.1 °F 36.0 °F 41% 29.87 in 10.0 mi WSW 9.2 mph - N/A   Scattered Clouds
8:53 PM 57.9 °F 36.0 °F 44% 29.88 in 10.0 mi WSW 9.2 mph - N/A   Scattered Clouds
9:53 PM 55.0 °F 37.0 °F 51% 29.90 in 10.0 mi SSW 4.6 mph - N/A   Scattered Clouds
10:53 PM 54.0 °F 37.0 °F 53% 29.91 in 10.0 mi West 6.9 mph - N/A   Mostly Cloudy
11:53 PM 53.1 °F 36.0 °F 52% 29.93 in 10.0 mi West 6.9 mph - N/A   Partly Cloudy